Regional Weather Roundup
Issued by NWS

Home | Current Version | Previous Version | Graphics & Text | Print | Product List | Glossary On
Versions: 1 2 3 4 5 6 7 8 9 10 11 12 13 14 15 16 17 18 19 20 21 22 23 24 25 26 27 28 29 30 31 32 33 34 35 36 37 38 39 40 41 42 43 44 45 46 47 48 49 50
000
ASUS45 KBOU 192207
RWRCO

WEATHER ROUNDUP FOR COLORADO
NATIONAL WEATHER SERVICE DENVER/BOULDER CO
400 PM MDT SUN APR 19 2015

NOTE: "FAIR" INDICATES FEW OR NO CLOUDS BELOW 12000 FEET WITH NO
SIGNIFICANT WEATHER AND/OR OBSTRUCTIONS TO VISIBILITY.

COZ001>005-013-030-031-192300-
...NORTHWEST COLORADO...

CITY           SKY/WX    TMP DP  RH WIND       PRES   REMARKS
CRAIG          MOSUNNY   49  25  39 CALM      30.09F
HAYDEN         MOSUNNY   45  25  45 W12       30.08F
MEEKER         MOSUNNY   48  32  53 CALM      30.08F
MOUNT WERNER   NOT AVBL
STEAMBOAT SPGS CLOUDY    45  29  52 SW12      30.07F
WALDEN         CLOUDY    36  19  51 N16       30.09S
$$

COZ006>008-011-192300-
...WEST CENTRAL VALLEYS...

CITY           SKY/WX    TMP DP  RH WIND       PRES   REMARKS
GRAND JUNCTION MOSUNNY   60  34  37 E10       30.01F
MONTROSE       MOSUNNY   57  30  35 NW6       30.06F
EAGLE          PTSUNNY   50  30  46 SW7       30.07F
RIFLE          CLOUDY    53  31  42 CALM      30.05F
DELTA          CLOUDY    56  36  47 NW8       30.05S
NUCLA          MOSUNNY   55  32  41 E20G25    30.08F
$$

COZ017>023-064>068-192300-
...SOUTHWEST COLORADO...

CITY           SKY/WX    TMP DP  RH WIND       PRES   REMARKS
DURANGO        PTSUNNY   58  17  20 NW12      29.96F
CORTEZ         SUNNY     63  19  18 W14G25    30.00F
PAGOSA SPRINGS PTSUNNY   55  17  23 S10G18    30.00F
TELLURIDE      CLOUDY    43  22  42 CALM      30.13F
WOLF CREEK PAS MOSUNNY   30  18  59 SW13      30.16F WCI  20
$$

COZ009-010-012-014-032>034-037-058>063-192300-
...CENTRAL COLORADO...

CITY           SKY/WX    TMP DP  RH WIND       PRES   REMARKS
ASPEN          CLOUDY    43  29  57 NW10      30.08F
BUENA VISTA    CLOUDY    44  21  40 NW16G22   30.02S
COPPER MTN     CLOUDY    27  21  80 W20G28    30.12S WCI  13
BERTHOUD PASS  CLOUDY    18   9  68 NW25      30.08R WCI  -1
COTTONWOOD PAS PTSUNNY   41  14  33 W18G36    30.06S
GUNNISON       MOSUNNY   48  21  34 NW13G22   30.08F
KREMMLING      PTSUNNY   43  19  39 NW9       30.08F
LEADVILLE      PTSUNNY   31  19  61 NW18G28   30.07S WCI  19
MONARCH PASS   LGT SNOW  23  21  93 MISG      30.22F
SALIDA         CLOUDY    52  31  44 W8G17     30.09F
SUNLIGHT       LGT SNOW  32  30  93 W3        30.18F
WILKERSON PASS MOSUNNY   32  21  64 NW8       30.12S WCI  25
$$

COZ069>075-192300-
...SAN LUIS VALLEY/SANGRE DE CRISTO MOUNTAINS...

CITY           SKY/WX    TMP DP  RH WIND       PRES   REMARKS
ALAMOSA        CLOUDY    53  15  22 N13G22    29.98F
LA VETA PASS   CLOUDY    34  28  80 N12       30.08S WCI  25
SAGUACHE       PTSUNNY   50  25  37 NW23G32   30.03S
$$

COZ035-036-038>040-192300-
...NORTHERN COLORADO FRONT RANGE...

CITY           SKY/WX    TMP DP  RH WIND       PRES   REMARKS
DENVER INTL AP PTSUNNY   50  24  36 N15G24    30.04F
DMNS CITY PARK   N/A     49  23  36 NE9G15    30.04F
AURORA         NOT AVBL
FRONT RANGE AP PTSUNNY   50  27  40 N18G28    30.05F
ERIE MUNI ARPT PTSUNNY   52  26  36 CALM      30.03F
BOULDER MUN AP CLOUDY    48  28  46 SE5       30.03F
CENTENNIAL     PTSUNNY   44  25  47 NE12G18   30.04F
BROOMFIELD     PTSUNNY   48  27  43 NE3       30.05F
FORT COLLINS   MOSUNNY   54  25  32 N24G31    30.05S
LONGMONT       CLOUDY    54  29  39 NE7       30.04F
$$

COZ041-046-047-076>085-087-088-192300-
...PIKES PEAK/PALMER DIVIDE AND SOUTHERN FOOTHILLS...

CITY           SKY/WX    TMP DP  RH WIND       PRES   REMARKS
COLO. SPRINGS  PTSUNNY   49  27  42 VRB5      30.03F
A. F. ACADEMY  MOSUNNY   45  27  49 NW16      30.02F
ELLICOTT       PTSUNNY  N/A N/A N/A N16G25    30.02S
FALCON         MOSUNNY   46  26  46 N16G23    30.04S
FORT CARSON    LGT RAIN  44  33  66 NW2       30.02F
LIMON          MOSUNNY   49  24  37 N25G37    30.02F
MONUMENT HILL  PTSUNNY   37  27  65 N16       30.05S
TRINIDAD       MOSUNNY   53  26  35 NE10      30.01F
$$

COZ042>045-048>051-090-091-192300-
...NORTHEAST COLORADO...

CITY           SKY/WX    TMP DP  RH WIND       PRES   REMARKS
GREELEY ARPT   SUNNY     52  25  35 N29G36    30.03F
AKRON          CLOUDY    46  21  37 NW23G35   30.02F
BURLINGTON     PTSUNNY   49  24  37 N26G33    30.00F
WRAY           PTSUNNY   53  21  28 NW23G30   30.00F
STERLING       PTSUNNY   50  27  40 N25G32    30.02F
HOLYOKE        MOSUNNY   52  23  32 N26G36    29.99F
FORT MORGAN    MOSUNNY   52  23  31 N25G36    30.04F
$$

COZ086-089-092>099-192300-
...SOUTHEAST COLORADO...

CITY           SKY/WX    TMP DP  RH WIND       PRES   REMARKS
PUEBLO         CLOUDY    55  26  32 N7G18     30.00F
LA JUNTA       MOSUNNY   58  26  29 N15G26    30.00F
LAMAR          SUNNY     56  28  34 N24G32    29.98F
SPRINGFIELD      N/A     54  28  36 N24G32    29.99F
$$


USA.gov is the U.S. government's official web portal to all federal, state and local government web resources and services.